Back to catalog

FENGYUN 1C DEB

AliveSSO
NORAD 38510·DEBRIS·🇨🇳 China

Launched May 10, 1999 from Taiyuan Satellite Launch Center

Loading…

Next Passes (next 24 hours)

TLE

AgingSource: Space-Track

Epoch: Sep 6, 2026, 05:45 UTC

1 38510U 99025ESV 26249.24012757  .00000636  00000-0  34065-3 0  9999
2 38510  98.6035 253.2029 0098936 104.8047 256.4112 14.13899327924498

Track FENGYUN 1C DEB in real time with AllMySat

Download on the App Store